Theta_e
306 307 307 307 306 306 306 306 307 307 307 307 312 314 314 315 315 320 317 317 318 319 320 321 321 317 316 318 319 319 322 325 325 317 317 316 317 317 315 315 320 331 335 334 337
307 307 306 305 303 303 304 305 307 308 307 308 311 314 315 316 316 318 317 318 318 319 320 320 319 316 315 316 318 321 321 322 319 316 317 318 318 317 317 315 316 319 335 335 333
307 307 304 302 302 304 307 308 310 310 310 310 311 313 316 315 322 319 318 318 319 320 320 320 320 318 318 315 316 317 317 317 317 317 319 319 318 318 318 318 317 316 317 335 334
307 304 302 302 302 304 307 310 310 309 311 311 311 313 316 320 322 319 317 318 320 320 320 318 317 319 320 321 319 316 316 317 319 319 320 319 318 318 318 318 316 316 315 333 334
306 304 302 302 302 304 307 310 309 308 309 310 311 313 318 323 321 317 318 319 320 320 319 318 318 318 319 318 318 319 319 319 319 318 319 318 319 319 318 316 315 315 314 313 314
305 304 303 302 302 305 308 310 309 313 312 311 310 314 320 324 319 317 318 319 319 320 320 318 318 318 319 319 318 319 319 318 319 319 319 320 319 319 318 315 316 316 315 314 314
306 304 303 302 302 305 310 309 312 315 313 310 311 317 323 323 318 319 319 319 319 320 319 320 319 319 319 320 319 320 320 319 320 320 320 319 320 320 317 316 315 315 314 316 315
306 305 303 302 302 304 310 310 315 315 314 314 315 320 319 320 319 319 319 319 319 320 320 320 319 319 320 319 319 321 316 317 316 320 320 319 321 319 315 317 317 316 314 316 316
308 306 303 302 302 304 310 312 316 316 317 318 317 320 319 319 319 319 319 319 319 320 320 320 318 319 319 318 313 313 316 316 316 319 320 319 320 318 317 318 318 316 315 316 316
309 307 304 302 302 304 310 313 315 314 318 319 322 318 316 316 317 319 319 319 319 318 319 320 317 317 313 311 312 316 315 315 315 318 320 320 320 319 318 318 317 315 315 315 318
309 308 304 302 302 303 311 315 314 314 316 314 315 315 317 318 319 318 319 319 319 318 319 319 318 316 313 314 315 315 315 316 317 319 321 320 321 320 319 318 318 316 315 317 318
307 308 305 302 302 304 311 315 316 316 317 317 317 316 317 316 317 317 318 316 317 318 314 312 315 314 313 314 315 315 317 317 318 321 321 319 322 320 319 319 318 317 317 317 318
307 308 307 302 302 311 314 317 316 318 318 319 317 317 317 317 317 317 315 314 315 314 315 312 314 314 314 314 314 314 317 317 319 321 319 320 321 321 319 318 318 317 317 318 317
312 307 307 302 307 306 315 317 317 319 313 315 317 317 318 316 317 316 315 314 315 316 316 314 313 314 313 314 314 315 316 317 318 322 323 317 321 320 318 317 317 318 320 318 318
316 310 308 306 306 309 315 317 319 317 312 317 318 318 316 317 317 316 314 314 315 315 312 312 313 312 313 314 313 314 315 316 318 322 322 319 319 316 318 320 318 321 320 318 319
324 314 309 305 311 310 315 319 319 316 316 320 317 316 316 316 317 316 315 314 314 314 313 312 312 312 313 313 313 315 318 315 321 321 325 319 320 317 320 320 321 321 319 319 318
323 320 311 307 307 310 317 317 316 318 318 320 318 315 314 315 316 314 314 315 313 314 315 314 313 313 313 314 313 314 312 312 315 318 323 321 319 319 319 321 321 321 320 318 318
321 321 313 309 304 307 315 319 317 313 319 319 317 315 314 315 315 313 314 315 313 312 313 313 313 313 311 314 314 315 315 311 305 316 316 320 320 319 320 320 319 319 319 318 317
317 319 315 309 307 305 312 321 317 322 319 317 315 315 314 314 313 314 313 314 312 311 313 313 315 311 309 312 313 315 316 317 316 318 319 320 320 319 320 321 317 319 319 318 317
317 314 311 314 307 308 313 318 318 318 317 315 316 313 314 313 315 313 312 313 313 311 310 312 313 311 312 312 316 315 316 319 316 316 320 318 315 314 318 319 318 319 319 318 316
314 312 312 315 307 309 313 312 314 316 316 314 314 314 314 314 312 313 313 314 313 311 310 310 309 312 311 312 316 316 316 315 314 316 318 320 316 309 317 319 318 317 317 317 316
313 315 313 307 307 306 309 311 313 313 314 316 314 314 314 312 312 313 314 314 312 311 311 310 308 312 312 311 311 311 311 309 312 316 312 313 316 317 316 316 316 314 316 316 314
313 314 312 307 309 306 305 308 310 311 313 315 314 315 314 313 314 314 314 312 311 311 310 309 310 312 312 312 312 311 311 307 307 308 312 314 311 314 314 314 314 312 312 315 313
313 314 311 310 309 306 305 306 307 308 310 314 314 314 315 315 313 314 312 311 310 313 317 311 310 311 313 314 311 310 311 307 306 307 310 312 311 317 316 316 314 312 311 312 313
311 311 309 312 310 310 307 305 305 305 308 310 312 314 314 315 314 314 312 310 310 319 309 308 311 311 312 313 314 312 311 308 306 305 309 310 311 312 316 316 314 311 311 309 311
311 308 309 312 309 311 311 311 304 305 308 312 313 313 312 313 314 313 311 309 310 312 308 307 310 311 311 311 309 309 309 308 308 307 306 306 307 306 311 313 312 311 311 311 308
309 309 311 311 312 313 313 312 309 305 305 308 312 313 313 312 311 311 310 308 308 309 308 307 308 310 312 311 312 312 311 310 309 307 308 307 307 313 316 316 314 312 311 311 307
Wind_Speed
9 11 12 12 13 14 15 14 13 13 11 10 9 9 9 11 9 2 2 2 1 3 6 5 1 1 2 2 1 3 4 1 2 3 5 5 6 1 5 5 3 7 3 4 9
9 11 12 13 14 15 15 15 14 13 11 9 8 8 9 10 5 3 4 1 1 2 4 5 3 3 2 1 1 4 3 4 3 3 4 3 1 6 5 7 3 4 2 2 4
9 10 12 14 15 16 16 14 12 12 10 10 7 7 7 5 2 5 5 2 2 5 8 7 8 2 1 2 3 4 4 4 6 5 4 4 7 2 3 5 6 9 5 4 4
10 11 14 16 17 18 18 13 13 12 10 10 7 5 5 1 3 5 6 2 2 6 8 4 4 3 2 1 1 0 5 4 5 4 5 5 4 6 3 9 8 8 4 4 7
10 11 13 15 19 19 17 14 14 11 10 9 7 3 2 2 6 7 6 3 1 5 4 2 4 2 1 3 5 3 3 4 6 9 5 5 6 4 8 13 8 8 7 3 7
13 13 13 15 19 21 16 15 14 10 7 7 5 3 1 2 5 9 5 4 3 2 3 4 2 1 1 2 1 2 4 8 8 8 3 4 3 2 6 8 12 12 10 9 8
13 16 15 14 17 21 17 17 10 7 5 5 5 3 1 9 9 8 6 5 5 2 1 1 2 3 1 3 3 5 6 8 3 3 4 2 4 2 6 4 11 11 9 9 10
13 14 17 17 17 19 18 15 7 5 2 2 4 3 5 3 11 11 10 7 7 5 3 2 2 2 2 3 6 4 4 4 6 2 1 3 5 5 9 9 9 8 8 9 11
14 14 16 16 18 19 17 12 5 3 2 1 2 2 7 7 8 13 10 5 6 8 7 1 2 1 3 3 5 5 2 4 6 4 3 3 2 5 6 8 9 9 11 14 13
15 16 15 16 17 20 14 8 4 4 2 2 3 2 5 5 8 10 11 8 2 1 2 2 4 2 3 4 1 4 4 4 5 4 2 2 2 4 6 8 7 8 9 9 11
17 17 17 15 16 17 14 3 4 3 2 8 5 4 2 3 7 8 11 4 2 3 2 1 3 3 6 6 4 2 3 4 4 2 2 2 3 2 4 6 9 9 9 11 13
18 18 18 17 15 15 5 2 3 1 6 11 11 6 6 5 2 4 9 4 4 5 2 3 5 8 7 0 1 1 2 4 6 5 4 4 2 3 4 1 3 8 11 11 12
17 18 20 18 17 5 2 1 1 3 2 7 7 5 5 7 5 4 8 4 5 3 4 5 4 5 1 1 3 2 4 3 5 6 3 5 2 4 4 3 5 7 9 12 10
17 16 19 20 5 8 1 1 1 2 2 5 6 5 6 5 3 5 5 5 1 4 4 4 1 3 2 2 3 3 7 5 3 3 2 3 4 3 5 8 4 7 12 11 13
17 15 15 16 12 2 1 3 3 1 3 3 4 8 6 7 5 4 3 3 4 3 5 5 4 2 2 4 3 8 3 6 3 3 2 4 3 5 5 7 9 15 14 14 13
17 16 13 7 8 3 3 2 2 4 7 3 5 6 5 3 3 4 2 2 1 1 1 5 0 4 4 2 4 5 2 7 5 3 2 4 3 4 4 4 6 12 13 14 14
22 16 15 9 4 3 1 3 3 5 1 6 6 6 5 6 4 6 5 3 4 3 1 2 3 2 2 2 3 8 5 2 4 4 4 1 2 6 2 4 5 11 11 13 12
21 19 20 22 15 6 3 4 5 7 7 2 5 6 8 7 6 7 6 3 3 3 2 4 4 5 2 3 2 1 5 4 5 1 4 4 2 5 4 6 3 6 8 10 13
22 21 16 28 18 15 1 4 9 7 6 9 4 4 5 5 6 4 7 5 7 7 6 4 3 1 2 2 4 1 1 3 5 3 3 3 2 3 4 3 3 7 7 9 10
14 7 14 25 15 13 2 11 8 6 4 4 11 6 9 8 6 7 8 4 6 4 3 5 1 4 3 2 1 2 5 2 3 2 2 4 3 4 4 4 3 5 6 6 8
11 2 7 26 20 3 9 8 8 7 3 6 8 7 7 8 8 7 7 1 6 6 4 3 3 2 3 4 6 1 1 1 3 4 4 1 5 5 6 5 6 1 1 3 6
5 4 5 28 7 3 10 8 6 13 6 7 4 5 9 10 7 7 10 5 8 8 7 3 4 3 5 2 2 4 5 5 4 3 1 3 5 3 7 7 7 5 2 3 6
3 2 5 12 7 10 4 8 8 12 6 8 8 7 4 8 5 4 5 1 7 6 8 6 2 1 5 4 3 3 4 4 4 2 4 5 5 3 4 7 6 7 5 3 6
2 3 1 4 8 7 11 13 21 8 7 5 7 4 4 3 4 7 4 1 3 4 7 5 3 5 6 4 4 4 5 5 6 3 3 5 3 5 7 7 7 7 7 6 6
5 4 3 5 13 21 8 8 18 15 15 11 6 10 8 5 3 5 4 3 4 7 3 5 5 5 6 7 3 6 6 8 8 6 6 4 7 7 13 12 10 9 8 8 9
4 4 3 2 19 24 20 11 18 20 12 14 13 9 8 8 8 9 9 5 6 3 6 2 2 3 4 4 8 6 9 10 9 6 7 5 9 7 8 8 8 10 11 10 8
11 6 3 7 8 14 20 27 19 12 13 14 15 10 11 11 6 3 4 9 11 10 7 7 5 3 4 3 3 6 9 10 6 6 10 9 10 6 4 12 13 13 12 13 12
Wind_Direction
2 356 351 348 343 339 338 338 337 337 332 334 334 323 318 320 330 330 254 238 328 346 355 3 180 139 63 12 50 86 63 263 265 17 279 313 354 229 296 354 348 346 9 325 135
359 354 349 342 343 339 336 335 338 329 321 322 315 322 329 323 326 277 224 184 45 349 356 4 323 150 42 207 8 92 110 240 215 252 249 270 317 301 5 339 319 316 307 280 142
351 349 349 344 343 337 338 333 333 325 317 301 307 316 328 322 301 233 201 155 44 341 333 311 278 257 121 145 198 167 186 220 267 254 241 276 309 242 323 311 252 284 269 255 237
347 349 349 348 344 342 337 327 324 312 302 293 295 308 320 218 204 203 192 162 4 333 329 16 32 76 91 322 276 227 241 238 274 288 309 284 298 306 248 249 250 252 227 227 238
347 349 349 345 343 343 332 316 319 309 294 279 283 292 315 237 250 198 187 157 25 350 20 35 53 76 63 296 341 211 261 266 263 277 260 298 279 258 312 314 319 322 357 351 317
338 341 346 346 343 342 330 322 321 307 291 266 258 222 203 253 189 184 173 184 242 336 11 41 107 210 264 259 147 261 276 283 276 261 270 255 290 51 327 337 39 33 7 4 4
336 336 338 346 345 343 330 330 320 317 315 255 209 162 229 236 193 191 186 215 219 227 129 85 87 76 127 310 312 279 306 331 333 277 200 182 333 22 303 3 35 10 360 3 4
330 335 336 338 342 343 333 331 316 335 324 184 166 154 242 218 195 203 217 251 227 226 207 170 127 147 178 290 1 352 47 10 306 144 258 101 264 13 337 51 14 0 350 0 3
322 329 332 334 337 341 338 330 310 328 260 146 165 159 265 186 193 218 210 199 207 239 224 213 117 119 22 66 15 360 303 288 313 309 175 159 284 336 339 39 9 354 356 353 349
316 321 325 329 337 338 339 328 293 298 240 256 254 341 265 216 196 198 212 212 178 96 50 107 54 53 32 73 232 254 291 282 255 293 344 78 178 323 357 45 358 339 344 333 330
311 317 319 324 331 336 342 25 21 353 210 204 198 220 169 181 177 205 199 170 120 90 211 252 83 233 224 206 205 212 241 263 265 264 332 174 151 308 322 28 8 341 333 331 323
309 313 316 317 324 323 319 89 168 209 302 239 245 262 229 184 179 235 177 171 141 211 150 18 225 224 215 220 175 158 242 295 290 265 196 154 155 262 297 313 16 350 328 317 324
307 311 315 314 321 327 267 240 300 192 244 285 203 190 188 162 213 214 146 162 205 227 194 166 238 185 172 65 31 270 195 230 233 321 27 104 302 268 278 290 344 358 325 328 327
298 305 313 319 306 339 257 66 134 161 20 259 190 231 144 125 258 172 158 155 208 217 188 220 222 168 213 225 143 281 211 240 272 38 249 62 283 302 321 322 346 328 345 337 336
291 296 304 320 297 285 6 342 154 108 332 193 164 151 146 151 144 217 168 80 197 190 95 251 174 172 200 212 169 239 228 264 221 184 52 331 62 264 344 334 343 349 342 333 330
282 285 289 292 278 239 317 275 147 67 249 201 147 162 135 179 202 136 120 69 180 152 179 221 119 157 211 266 197 296 18 25 55 82 37 285 125 291 342 322 343 342 339 333 338
282 270 263 244 240 352 155 103 75 170 268 194 184 159 162 177 191 166 173 182 167 125 245 37 215 219 161 336 344 43 49 343 11 14 219 324 55 251 336 58 341 334 337 337 352
289 256 251 250 238 272 286 78 192 214 200 144 135 122 174 160 218 183 149 179 212 119 126 153 306 175 192 193 199 338 136 152 188 174 265 327 299 277 108 105 324 332 347 357 2
292 235 239 250 239 239 93 189 192 206 190 149 74 132 222 170 152 147 190 204 191 171 162 157 253 142 168 162 127 174 54 161 103 27 52 248 257 301 111 145 351 6 10 16 14
287 228 233 244 214 156 124 234 207 209 137 124 174 172 181 190 148 165 183 187 179 162 147 196 142 211 142 102 130 156 162 57 13 94 278 292 260 236 279 99 43 10 6 20 35
284 201 265 222 173 125 212 214 235 238 152 167 202 175 193 176 169 181 197 192 167 151 124 134 101 256 117 199 182 140 255 133 130 142 166 274 265 209 199 140 147 188 30 24 56
234 206 231 172 168 196 214 173 237 224 208 234 170 193 178 167 161 187 189 203 170 144 160 167 140 201 211 266 211 190 189 141 122 234 172 149 275 153 171 137 153 169 177 95 78
240 247 212 178 221 218 254 211 235 223 203 169 210 194 192 166 150 157 155 15 148 140 159 173 180 91 344 351 343 208 208 144 121 83 204 144 259 149 167 135 172 157 167 147 122
248 236 182 160 221 268 224 217 216 223 256 187 179 167 138 146 17 155 123 150 131 113 120 104 152 181 193 204 147 187 191 177 140 135 202 225 213 212 199 188 173 177 163 166 153
202 210 180 180 208 223 256 225 213 224 209 187 227 174 164 141 107 122 112 98 32 141 92 127 201 186 239 247 238 214 206 192 192 188 171 256 203 211 204 194 183 180 161 160 165
226 161 198 306 212 202 220 243 234 215 193 204 210 181 178 160 178 188 136 179 182 188 151 166 222 192 284 262 217 241 231 218 210 206 252 226 256 215 200 130 158 180 172 175 180
215 214 183 201 207 209 207 215 234 235 222 226 205 170 191 198 174 180 154 147 157 148 160 153 147 128 255 350 354 291 222 200 189 191 192 210 224 156 155 176 185 185 182 179 176